Moses Lake, WA

4:06 PM PDT on September 20, 2017 (GMT -0700)
Grant County International

Weather History for KMWH - April, 2012

Change the Weather History Date:

Tuesday, April 24, 2012

  Actual Average Record
Temperature  
Mean Temperature 68 °F 52 °F  
Max Temperature 82 °F 66 °F 82 °F (2012)
Min Temperature 54 °F 38 °F 25 °F (2002)
Degree Days  
Heating Degree Days 0 13  
Month to date heating degree days 345 373  
Since 1 July heating degree days 5486 5545  
Cooling Degree Days 3 0  
Month to date cooling degree days 9 0  
Year to date cooling degree days 9 0  
Growing Degree Days 18 (Base 50)    
Moisture  
Dew Point 47 °F    
Average Humidity 61    
Maximum Humidity 93    
Minimum Humidity 28    
Precipitation  
Precipitation 0.00 in 0.02 in 0.27 in (1983)
Month to date precipitation 0.40 0.57  
Year to date precipitation 2.33 3.29  
Sea Level Pressure  
Sea Level Pressure 29.74 in    
Wind  
Wind Speed 10 mph (SW)    
Max Wind Speed 21 mph    
Max Gust Speed 26 mph    
Visibility 10 miles    
Events      
T = Trace of Precipitation, MM = Missing Value Source: NWS Daily Summary

Daily Weather History Graph

Daily Weather History Graph

Search for Another Location

Airport or City:

Trip Planner

Search our weather history database for the weather conditions in past years. The results will help you decide how hot, cold, wet, or windy it might be!

Date:

Astronomy

Apr. 24, 2012 Rise Set
Actual Time 5:51 AM PDT 7:59 PM PDT
Civil Twilight 5:18 AM PDT 8:32 PM PDT
Nautical Twilight 4:37 AM PDT 9:14 PM PDT
Astronomical Twilight 3:51 AM PDT 10:00 PM PDT
Moon 7:41 AM PDT (4/24) 11:34 PM PDT (4/24)
Length of Visible Light 15h 14m
Length of Day
14h 07m
Waxing Crescent, 11% of the Moon is Illuminated
Apr 24
Waxing Crescent
Apr 29
First Quarter
May 5
Full
May 12
Last Quarter
May 20
New

Hourly Weather History & Observations

Time (PDT) Temp. Dew Point Humidity Pressure Visibility Wind Dir Wind Speed Gust Speed Precip Events Conditions
12:52 AM 64.0 °F 55.0 °F 73% 29.77 in 10.0 mi South 10.4 mph - N/A   Clear
1:52 AM 62.1 °F 55.0 °F 78% 29.73 in 10.0 mi East 6.9 mph - N/A   Clear
2:52 AM 61.0 °F 53.1 °F 75% 29.75 in 10.0 mi South 9.2 mph - N/A   Partly Cloudy
3:52 AM 61.0 °F 54.0 °F 78% 29.75 in 10.0 mi South 16.1 mph - N/A   Mostly Cloudy
4:52 AM 59.0 °F 54.0 °F 83% 29.75 in 10.0 mi South 10.4 mph - N/A   Clear
5:52 AM 55.9 °F 53.1 °F 90% 29.76 in 10.0 mi South 4.6 mph - N/A   Mostly Cloudy
6:52 AM 61.0 °F 54.0 °F 78% 29.76 in 10.0 mi Calm Calm - N/A   Clear
7:52 AM 62.1 °F 54.0 °F 75% 29.76 in 10.0 mi NE 3.5 mph - N/A   Clear
8:52 AM 66.0 °F 51.1 °F 59% 29.77 in 10.0 mi SSW 6.9 mph - N/A   Clear
9:52 AM 70.0 °F 52.0 °F 53% 29.77 in 10.0 mi SW 6.9 mph - N/A   Clear
10:52 AM 73.9 °F 50.0 °F 43% 29.77 in 10.0 mi Variable 5.8 mph - N/A   Clear
11:52 AM 78.1 °F 46.0 °F 32% 29.75 in 10.0 mi SW 13.8 mph 21.9 mph N/A   Clear
12:52 PM 79.0 °F 45.0 °F 30% 29.74 in 10.0 mi SSW 16.1 mph 24.2 mph N/A   Partly Cloudy
1:52 PM 79.0 °F 45.0 °F 30% 29.73 in 10.0 mi WSW 15.0 mph - N/A   Clear
2:52 PM 80.1 °F 45.0 °F 29% 29.71 in 10.0 mi West 15.0 mph 19.6 mph N/A   Mostly Cloudy
3:52 PM 79.0 °F 42.1 °F 27% 29.69 in 10.0 mi West 11.5 mph 21.9 mph N/A   Partly Cloudy
4:52 PM 78.1 °F 43.0 °F 29% 29.69 in 10.0 mi West 18.4 mph 23.0 mph N/A   Mostly Cloudy
5:52 PM 75.9 °F 42.1 °F 30% 29.70 in 10.0 mi West 16.1 mph - N/A   Clear
6:52 PM 73.0 °F 39.0 °F 29% 29.69 in 10.0 mi West 15.0 mph - N/A   Clear
7:52 PM 69.1 °F 41.0 °F 36% 29.70 in 10.0 mi WSW 12.7 mph - N/A   Clear
8:52 PM 64.0 °F 42.1 °F 45% 29.74 in 10.0 mi West 9.2 mph - N/A   Clear
9:52 PM 57.9 °F 39.9 °F 51% 29.76 in 10.0 mi NNW 6.9 mph - N/A   Clear
10:52 PM 57.0 °F 41.0 °F 55% 29.78 in 10.0 mi SSE 5.8 mph - N/A   Clear
11:52 PM 57.2 °F 41.0 °F 55% 29.80 in 10.0 mi SSW 6.9 mph - N/A   Clear